This is the latest recevied weather packets stored in our database for station/object M0TJX-1. If no packets are shown the sender has not sent any weather packets the latest 10 day(s).
| Time | Temp. | Humidity | Pressure | Rain* | Wind** | Luminosity | Snow |
|---|---|---|---|---|---|---|---|
| 1777562003 | 22.78° C | 28% | 1018.4 hPa | 0 mm | - | - | - |
| 1777561103 | 23.33° C | 29% | 1018.5 hPa | 0 mm | - | - | - |
| 1777560203 | 22.78° C | 31% | 1018.5 hPa | 0 mm | - | - | - |
| 1777559303 | 22.78° C | 32% | 1018.5 hPa | 0 mm | - | - | - |
| 1777558403 | 22.78° C | 36% | 1018.6 hPa | 0 mm | - | - | - |
| 1777557503 | 22.78° C | 34% | 1018.9 hPa | 0 mm | - | - | - |
| 1777556603 | 22.78° C | 35% | 1019.3 hPa | 0 mm | - | - | - |
| 1777555704 | 22.78° C | 36% | 1019.3 hPa | 0 mm | - | - | - |
| 1777555242 | 22.22° C | 36% | 1019.5 hPa | 0 mm | - | - | - |
| 1777554803 | 22.22° C | 36% | 1019.5 hPa | 0 mm | - | - | - |
| 1777553903 | 22.22° C | 36% | 1019.5 hPa | 0 mm | - | - | - |
| 1777553004 | 22.22° C | 37% | 1019.5 hPa | 0 mm | - | - | - |
| 1777552104 | 22.22° C | 36% | 1019.7 hPa | 0 mm | - | - | - |
| 1777551340 | 21.67° C | 38% | 1019.7 hPa | 0 mm | - | - | - |
| 1777551203 | 21.67° C | 38% | 1019.7 hPa | 0 mm | - | - | - |
| 1777550304 | 21.67° C | 38% | 1019.9 hPa | 0 mm | - | - | - |
| 1777549404 | 21.11° C | 40% | 1020.1 hPa | 0 mm | - | - | - |
| 1777548504 | 20.56° C | 39% | 1020 hPa | 0 mm | - | - | - |
| 1777547604 | 20° C | 42% | 1019.9 hPa | 0 mm | - | - | - |
| 1777546704 | 20° C | 44% | 1020 hPa | 0 mm | - | - | - |
| 1777545804 | 20° C | 47% | 1020.3 hPa | 0 mm | - | - | - |
| 1777544904 | 18.89° C | 47% | 1020.4 hPa | 0 mm | - | - | - |
| 1777544004 | 18.89° C | 48% | 1020.6 hPa | 0 mm | - | - | - |
| 1777543104 | 18.33° C | 49% | 1020.5 hPa | 0 mm | - | - | - |
| 1777542204 | 17.78° C | 51% | 1020.5 hPa | 0 mm | - | - | - |
* Rain latest hour (hover to see other rain measurements)
** Current wind speed in m/s (hover to see current wind gust speed)